DLH6VX EDDF-ESSA

Flight info

Callsign DLH6VX
Flight time 1h 38m
Altitude 35000
Route MARUN7F/25C MARUN Y150 TOLGI DCT OBATU DCT BERIM DCT ROSOK DCT SONAL DCT VIBAR Z227 NILUG
Aircraft A359/H-SDE2E3GHIJ3J4J5LM1ORWXY/LB1D1

Departure

Time 2026-05-07 15:10
Airport Frankfurt Main Airport (EDDF)

Arrival

Time 2026-05-07 16:48
Airport Stockholm-Arlanda Airport (ESSA)
Time Latitude Longitude Altitude Speed Heading
2026-05-07 14:16 50.04729 8.56273 370 ft 0 kts 340°
2026-05-07 14:55 50.04723 8.56277 368 ft 4 kts 340°
2026-05-07 14:55 50.04698 8.56291 366 ft 4 kts 340°
2026-05-07 14:55 50.04674 8.56308 369 ft 4 kts 325°
2026-05-07 14:56 50.04656 8.56336 366 ft 4 kts 293°
2026-05-07 14:56 50.04652 8.56373 364 ft 3 kts 251°
2026-05-07 14:56 50.04653 8.56378 364 ft 4 kts 249°
2026-05-07 14:59 50.04650 8.56364 364 ft 3 kts 250°
2026-05-07 14:59 50.04636 8.56305 367 ft 8 kts 250°
2026-05-07 15:00 50.04611 8.56197 367 ft 13 kts 249°
2026-05-07 15:00 50.04576 8.56054 368 ft 15 kts 249°
2026-05-07 15:00 50.04517 8.55956 368 ft 12 kts 206°
2026-05-07 15:00 50.04455 8.55923 368 ft 10 kts 197°
2026-05-07 15:01 50.04377 8.55916 364 ft 13 kts 168°
2026-05-07 15:01 50.04355 8.55926 369 ft 0 kts 161°
2026-05-07 15:02 50.04354 8.55926 369 ft 1 kts 161°
2026-05-07 15:02 50.04334 8.55937 366 ft 6 kts 162°
2026-05-07 15:02 50.04279 8.55984 369 ft 11 kts 128°
2026-05-07 15:03 50.04282 8.56113 365 ft 13 kts 73°
2026-05-07 15:03 50.04318 8.56269 370 ft 17 kts 70°
2026-05-07 15:03 50.04364 8.56464 371 ft 20 kts 68°
2026-05-07 15:03 50.04418 8.56684 366 ft 23 kts 69°
2026-05-07 15:04 50.04473 8.56921 371 ft 24 kts 70°
2026-05-07 15:04 50.04526 8.57146 367 ft 20 kts 70°
2026-05-07 15:04 50.04578 8.57359 371 ft 22 kts 69°
2026-05-07 15:04 50.04562 8.57505 373 ft 11 kts 144°
2026-05-07 15:05 50.04497 8.57567 374 ft 11 kts 141°
2026-05-07 15:05 50.04468 8.57667 375 ft 10 kts 93°
2026-05-07 15:05 50.04487 8.57784 375 ft 13 kts 70°
2026-05-07 15:05 50.04521 8.57929 372 ft 16 kts 70°
2026-05-07 15:06 50.04564 8.58109 374 ft 19 kts 69°
2026-05-07 15:06 50.04607 8.58290 378 ft 17 kts 70°
2026-05-07 15:06 50.04650 8.58475 376 ft 15 kts 75°
2026-05-07 15:06 50.04650 8.58510 375 ft 0 kts 96°
2026-05-07 15:08 50.04645 8.58541 375 ft 8 kts 111°
2026-05-07 15:08 50.04574 8.58600 376 ft 14 kts 160°
2026-05-07 15:08 50.04496 8.58604 377 ft 10 kts 219°
2026-05-07 15:09 50.04478 8.58545 376 ft 0 kts 249°
2026-05-07 15:09 50.04442 8.58396 376 ft 47 kts 250°
2026-05-07 15:09 50.04237 8.57539 376 ft 121 kts 250°
2026-05-07 15:10 50.03872 8.56001 464 ft 174 kts 249°
2026-05-07 15:10 50.03446 8.54194 1225 ft 174 kts 250°
2026-05-07 15:10 50.03011 8.52406 1974 ft 186 kts 251°
2026-05-07 15:10 50.02733 8.50349 2460 ft 202 kts 271°
2026-05-07 15:11 50.02836 8.48142 3146 ft 209 kts 278°
2026-05-07 15:11 50.03021 8.45882 3909 ft 211 kts 278°
2026-05-07 15:11 50.03263 8.43608 4586 ft 215 kts 285°
2026-05-07 15:11 50.03931 8.41519 4913 ft 228 kts 309°
2026-05-07 15:12 50.05172 8.39756 4969 ft 253 kts 322°
2026-05-07 15:12 50.06607 8.38106 5044 ft 260 kts 323°
2026-05-07 15:12 50.08074 8.36426 5640 ft 263 kts 322°
2026-05-07 15:12 50.09549 8.34728 6710 ft 263 kts 323°
2026-05-07 15:13 50.11172 8.33373 7743 ft 268 kts 340°
2026-05-07 15:13 50.13034 8.33028 8794 ft 274 kts
2026-05-07 15:13 50.14885 8.33662 9835 ft 279 kts 15°
2026-05-07 15:13 50.16773 8.34576 10621 ft 293 kts 15°
2026-05-07 15:14 50.18800 8.35568 11032 ft 318 kts 15°
2026-05-07 15:14 50.20992 8.36626 11480 ft 339 kts 15°
2026-05-07 15:14 50.23289 8.37727 12217 ft 350 kts 15°
2026-05-07 15:14 50.25651 8.38855 12808 ft 357 kts 15°
2026-05-07 15:15 50.28038 8.39993 13016 ft 359 kts 15°
2026-05-07 15:15 50.30433 8.41148 13061 ft 361 kts 17°
2026-05-07 15:15 50.32804 8.42433 13044 ft 362 kts 18°
2026-05-07 15:15 50.35185 8.43764 13055 ft 362 kts 18°
2026-05-07 15:16 50.37563 8.45084 13047 ft 362 kts 18°
2026-05-07 15:16 50.39906 8.46376 13048 ft 362 kts 18°
2026-05-07 15:16 50.42277 8.47679 13054 ft 362 kts 18°
2026-05-07 15:16 50.44652 8.48984 13057 ft 362 kts 18°
2026-05-07 15:17 50.47037 8.50292 13052 ft 362 kts 18°
2026-05-07 15:17 50.49423 8.51547 13056 ft 361 kts 16°
2026-05-07 15:17 50.51826 8.52678 13047 ft 361 kts 15°
2026-05-07 15:17 50.54248 8.53806 13053 ft 361 kts 15°
2026-05-07 15:18 50.56623 8.54925 13050 ft 361 kts 15°
2026-05-07 15:18 50.59042 8.56073 13301 ft 363 kts 16°
2026-05-07 15:18 50.61471 8.57233 14089 ft 366 kts 16°
2026-05-07 15:18 50.63915 8.58405 14977 ft 368 kts 16°
2026-05-07 15:19 50.66382 8.59590 15797 ft 372 kts 16°
2026-05-07 15:19 50.68876 8.60789 16617 ft 377 kts 16°
2026-05-07 15:19 50.71398 8.62004 17441 ft 381 kts 16°
2026-05-07 15:19 50.73949 8.63235 18281 ft 386 kts 16°
2026-05-07 15:20 50.76540 8.64487 19027 ft 391 kts 16°
2026-05-07 15:20 50.79145 8.65818 19761 ft 397 kts 19°
2026-05-07 15:20 50.81596 8.67756 20482 ft 403 kts 32°
2026-05-07 15:20 50.83738 8.70639 21240 ft 408 kts 46°
2026-05-07 15:21 50.85615 8.74053 21991 ft 413 kts 50°
2026-05-07 15:21 50.87397 8.77677 22705 ft 418 kts 52°
2026-05-07 15:21 50.89137 8.81404 23455 ft 423 kts 53°
2026-05-07 15:21 50.90885 8.85198 24084 ft 428 kts 53°
2026-05-07 15:22 50.92654 8.89019 24727 ft 431 kts 53°
2026-05-07 15:22 50.94449 8.92859 25354 ft 435 kts 52°
2026-05-07 15:22 50.96247 8.96658 25972 ft 438 kts 52°
2026-05-07 15:22 50.98089 9.00542 26599 ft 442 kts 52°
2026-05-07 15:23 50.99946 9.04454 27211 ft 446 kts 52°
2026-05-07 15:23 51.01823 9.08410 27782 ft 450 kts 52°
2026-05-07 15:23 51.03719 9.12413 28410 ft 453 kts 52°
2026-05-07 15:23 51.05628 9.16449 28970 ft 457 kts 52°
2026-05-07 15:24 51.07582 9.20391 29537 ft 460 kts 48°
2026-05-07 15:24 51.09858 9.23975 30091 ft 462 kts 39°
2026-05-07 15:24 51.12485 9.26979 30561 ft 464 kts 30°
2026-05-07 15:24 51.15384 9.29232 30991 ft 466 kts 20°
2026-05-07 15:25 51.18497 9.30735 31417 ft 468 kts 13°
2026-05-07 15:25 51.21633 9.31936 31832 ft 471 kts 12°
2026-05-07 15:25 51.24848 9.33054 32194 ft 474 kts 11°
2026-05-07 15:25 51.28096 9.34141 32610 ft 477 kts 10°
2026-05-07 15:26 51.31358 9.35224 32997 ft 480 kts 11°
2026-05-07 15:26 51.34636 9.36324 33342 ft 483 kts 11°
2026-05-07 15:26 51.37926 9.37448 33803 ft 483 kts 11°
2026-05-07 15:26 51.41225 9.38590 34253 ft 482 kts 11°
2026-05-07 15:27 51.44503 9.39734 34602 ft 483 kts 11°
2026-05-07 15:27 51.47801 9.40889 34876 ft 486 kts 11°
2026-05-07 15:27 51.51125 9.42056 35016 ft 489 kts 11°
2026-05-07 15:27 51.54445 9.43222 35054 ft 488 kts 11°
2026-05-07 15:28 51.61038 9.45543 35055 ft 488 kts 12°
2026-05-07 15:28 51.67683 9.47888 35061 ft 488 kts 12°
2026-05-07 15:29 51.74323 9.50236 35067 ft 488 kts 12°
2026-05-07 15:29 51.80930 9.52757 35072 ft 488 kts 17°
2026-05-07 15:30 51.87088 9.57404 35076 ft 489 kts 29°
2026-05-07 15:30 51.92904 9.63000 35078 ft 489 kts 31°
2026-05-07 15:31 51.98709 9.68803 35080 ft 489 kts 31°
2026-05-07 15:31 52.04510 9.74611 35081 ft 489 kts 31°
2026-05-07 15:32 52.09329 9.79425 35085 ft 489 kts 31°
2026-05-07 15:32 52.15134 9.85225 35086 ft 489 kts 31°
2026-05-07 15:33 52.20923 9.91024 35092 ft 489 kts 31°
2026-05-07 15:33 52.26732 9.96862 35078 ft 491 kts 31°
2026-05-07 15:34 52.32542 10.02721 35093 ft 491 kts 31°
2026-05-07 15:34 52.38348 10.08594 35081 ft 490 kts 31°
2026-05-07 15:35 52.44149 10.14482 35081 ft 490 kts 31°
2026-05-07 15:35 52.49901 10.20336 35068 ft 490 kts 31°
2026-05-07 15:36 52.55683 10.26239 35079 ft 490 kts 32°
2026-05-07 15:36 52.61466 10.32163 35078 ft 489 kts 32°
2026-05-07 15:37 52.67242 10.38098 35082 ft 488 kts 32°
2026-05-07 15:37 52.73006 10.44022 35079 ft 488 kts 31°
2026-05-07 15:38 52.78816 10.49865 35073 ft 488 kts 31°
2026-05-07 15:38 52.84600 10.55662 35076 ft 488 kts 31°
2026-05-07 15:39 52.90401 10.61515 35075 ft 488 kts 31°
2026-05-07 15:39 52.96198 10.67396 35074 ft 488 kts 31°
2026-05-07 15:40 53.01993 10.73298 35057 ft 489 kts 31°
2026-05-07 15:40 53.07805 10.79236 35073 ft 491 kts 31°
2026-05-07 15:41 53.13627 10.85202 35056 ft 491 kts 31°
2026-05-07 15:41 53.19443 10.91182 35072 ft 491 kts 31°
2026-05-07 15:42 53.25217 10.97137 35073 ft 491 kts 32°
2026-05-07 15:42 53.31030 11.03152 35072 ft 491 kts 32°
2026-05-07 15:43 53.36827 11.09170 35069 ft 491 kts 32°
2026-05-07 15:43 53.42624 11.15208 35060 ft 490 kts 32°
2026-05-07 15:44 53.48417 11.21261 35074 ft 490 kts 32°
2026-05-07 15:44 53.54204 11.27328 35073 ft 489 kts 32°
2026-05-07 15:45 53.59943 11.33363 35071 ft 489 kts 32°
2026-05-07 15:45 53.65721 11.39460 35062 ft 489 kts 32°
2026-05-07 15:46 53.74366 11.48650 35082 ft 489 kts 33°
2026-05-07 15:47 53.79878 11.55393 35087 ft 489 kts 37°
2026-05-07 15:47 53.85264 11.62363 35077 ft 491 kts 37°
2026-05-07 15:48 53.90730 11.69337 35080 ft 491 kts 37°
2026-05-07 15:48 53.96222 11.76257 35080 ft 491 kts 37°
2026-05-07 15:49 54.01686 11.83132 35087 ft 491 kts 37°
2026-05-07 15:49 54.07182 11.90071 35088 ft 491 kts 37°
2026-05-07 15:50 54.12666 11.97025 35088 ft 491 kts 37°
2026-05-07 15:50 54.18152 12.04007 35095 ft 491 kts 37°
2026-05-07 15:51 54.23782 12.10488 35094 ft 490 kts 32°
2026-05-07 15:51 54.29609 12.16591 35099 ft 490 kts 31°
2026-05-07 15:52 54.35449 12.22638 35102 ft 490 kts 31°
2026-05-07 15:52 54.41297 12.28713 35102 ft 490 kts 31°
2026-05-07 15:53 54.47082 12.34755 35104 ft 489 kts 31°
2026-05-07 15:53 54.52899 12.40857 35108 ft 489 kts 31°
2026-05-07 15:54 54.58723 12.46989 35107 ft 490 kts 31°
2026-05-07 15:54 54.64570 12.53165 35105 ft 491 kts 31°
2026-05-07 15:55 54.70344 12.59285 35109 ft 490 kts 31°
2026-05-07 15:55 54.76169 12.65479 35110 ft 490 kts 31°
2026-05-07 15:56 54.81971 12.71670 35112 ft 490 kts 31°
2026-05-07 15:56 54.87784 12.77894 35113 ft 490 kts 31°
2026-05-07 15:57 54.93453 12.84451 35113 ft 489 kts 35°
2026-05-07 15:57 54.98969 12.91428 35113 ft 489 kts 36°
2026-05-07 15:58 55.04452 12.98346 35112 ft 489 kts 35°
2026-05-07 15:58 55.09990 13.05246 35110 ft 489 kts 35°
2026-05-07 15:59 55.15517 13.12111 35110 ft 486 kts 35°
2026-05-07 15:59 55.21025 13.18971 35108 ft 485 kts 35°
2026-05-07 16:00 55.26489 13.25805 35106 ft 485 kts 35°
2026-05-07 16:00 55.31979 13.32697 35106 ft 485 kts 35°
2026-05-07 16:01 55.37460 13.39603 35104 ft 485 kts 35°
2026-05-07 16:01 55.42944 13.46536 35103 ft 490 kts 35°
2026-05-07 16:02 55.48485 13.53568 35102 ft 492 kts 35°
2026-05-07 16:02 55.54038 13.60639 35103 ft 492 kts 35°
2026-05-07 16:03 55.59544 13.67677 35098 ft 490 kts 35°
2026-05-07 16:03 55.65055 13.74743 35094 ft 489 kts 35°
2026-05-07 16:04 55.70548 13.81812 35099 ft 489 kts 35°
2026-05-07 16:04 55.76049 13.88916 35094 ft 489 kts 35°
2026-05-07 16:05 55.81565 13.96066 35092 ft 488 kts 35°
2026-05-07 16:05 55.87010 14.03150 35089 ft 487 kts 35°
2026-05-07 16:06 55.92487 14.10300 35074 ft 487 kts 35°
2026-05-07 16:06 55.97929 14.17428 35075 ft 487 kts 36°
2026-05-07 16:07 56.03395 14.24615 35082 ft 487 kts 35°
2026-05-07 16:07 56.08843 14.31804 35083 ft 485 kts 35°
2026-05-07 16:08 56.14275 14.38998 35080 ft 485 kts 35°
2026-05-07 16:08 56.19711 14.46221 35087 ft 490 kts 36°
2026-05-07 16:09 56.25209 14.53554 35086 ft 491 kts 36°
2026-05-07 16:09 56.30694 14.60901 35091 ft 490 kts 35°
2026-05-07 16:10 56.36119 14.68190 35091 ft 489 kts 35°
2026-05-07 16:10 56.41589 14.75567 35083 ft 489 kts 36°
2026-05-07 16:11 56.47009 14.82903 35082 ft 489 kts 36°
2026-05-07 16:11 56.52459 14.90307 35086 ft 489 kts 35°
2026-05-07 16:12 56.57903 14.97729 35070 ft 489 kts 35°
2026-05-07 16:12 56.63319 15.05142 35088 ft 489 kts 35°
2026-05-07 16:13 56.68759 15.12613 35064 ft 489 kts 36°
2026-05-07 16:13 56.74161 15.20062 35073 ft 489 kts 35°
2026-05-07 16:14 56.79598 15.27587 35069 ft 490 kts 35°
2026-05-07 16:14 56.85047 15.35154 35067 ft 490 kts 35°
2026-05-07 16:15 56.90445 15.42681 35072 ft 490 kts 36°
2026-05-07 16:15 56.95892 15.50302 35074 ft 492 kts 36°
2026-05-07 16:16 57.01308 15.57913 35075 ft 493 kts 35°
2026-05-07 16:16 57.06771 15.65615 35078 ft 494 kts 35°
2026-05-07 16:17 57.12189 15.73283 35080 ft 494 kts 36°
2026-05-07 16:17 57.17630 15.81015 35081 ft 494 kts 36°
2026-05-07 16:18 57.23073 15.88779 35099 ft 494 kts 35°
2026-05-07 16:18 57.28500 15.96548 35095 ft 496 kts 35°
2026-05-07 16:19 57.33033 16.03061 35096 ft 496 kts 35°
2026-05-07 16:19 57.38480 16.10916 35102 ft 496 kts 36°
2026-05-07 16:20 57.43920 16.18790 35125 ft 496 kts 35°
2026-05-07 16:20 57.49365 16.26700 35103 ft 498 kts 35°
2026-05-07 16:21 57.54792 16.34616 35107 ft 499 kts 35°
2026-05-07 16:21 57.60465 16.42029 35107 ft 496 kts 29°
2026-05-07 16:22 57.66322 16.48896 35110 ft 496 kts 29°
2026-05-07 16:22 57.72175 16.55743 35104 ft 496 kts 29°
2026-05-07 16:23 57.78036 16.62611 35113 ft 497 kts 29°
2026-05-07 16:23 57.83857 16.69456 35113 ft 497 kts 29°
2026-05-07 16:24 57.89711 16.76366 35116 ft 497 kts 29°
2026-05-07 16:24 57.95569 16.83308 35123 ft 498 kts 29°
2026-05-07 16:25 58.01442 16.90291 35082 ft 498 kts 29°
2026-05-07 16:25 58.07534 16.96456 34775 ft 494 kts 20°
2026-05-07 16:25 58.10655 16.99055 34216 ft 489 kts 20°
2026-05-07 16:26 58.13765 17.01602 33440 ft 486 kts 20°
2026-05-07 16:26 58.16843 17.04116 32519 ft 487 kts 20°
2026-05-07 16:26 58.19963 17.06665 31554 ft 489 kts 19°
2026-05-07 16:26 58.23102 17.09234 30572 ft 491 kts 19°
2026-05-07 16:27 58.26237 17.11806 29543 ft 492 kts 19°
2026-05-07 16:27 58.29385 17.14395 28625 ft 490 kts 19°
2026-05-07 16:27 58.32520 17.16980 27808 ft 486 kts 19°
2026-05-07 16:27 58.35619 17.19539 27047 ft 482 kts 19°
2026-05-07 16:28 58.38647 17.22044 26329 ft 478 kts 19°
2026-05-07 16:28 58.41724 17.24594 25620 ft 474 kts 19°
2026-05-07 16:28 58.44737 17.27095 24932 ft 470 kts 19°
2026-05-07 16:28 58.47731 17.29585 24218 ft 467 kts 19°
2026-05-07 16:29 58.50659 17.32023 23520 ft 463 kts 19°
2026-05-07 16:29 58.53602 17.34478 22738 ft 459 kts 19°
2026-05-07 16:29 58.56512 17.36912 21999 ft 453 kts 19°
2026-05-07 16:29 58.59386 17.39319 21271 ft 448 kts 19°
2026-05-07 16:30 58.62236 17.41710 20550 ft 443 kts 19°
2026-05-07 16:30 58.65042 17.44068 19844 ft 439 kts 20°
2026-05-07 16:30 58.67825 17.46410 19158 ft 434 kts 20°
2026-05-07 16:30 58.70541 17.48701 18513 ft 430 kts 20°
2026-05-07 16:31 58.71856 17.49812 18131 ft 428 kts 20°
2026-05-07 16:31 58.73553 17.51246 17662 ft 426 kts 20°
2026-05-07 16:31 58.76248 17.53529 17215 ft 420 kts 20°
2026-05-07 16:31 58.78918 17.55792 17110 ft 420 kts 20°
2026-05-07 16:32 58.81587 17.58057 16885 ft 418 kts 20°
2026-05-07 16:32 58.84248 17.60320 16621 ft 416 kts 20°
2026-05-07 16:32 58.86860 17.62546 16354 ft 415 kts 20°
2026-05-07 16:32 58.89495 17.64795 16103 ft 413 kts 20°
2026-05-07 16:33 58.92121 17.67041 15854 ft 411 kts 20°
2026-05-07 16:33 58.94735 17.69280 15590 ft 409 kts 20°
2026-05-07 16:33 58.97332 17.71510 15356 ft 407 kts 20°
2026-05-07 16:33 58.99924 17.73737 15109 ft 406 kts 20°
2026-05-07 16:34 59.02494 17.75947 14851 ft 404 kts 20°
2026-05-07 16:34 59.05058 17.78157 14601 ft 402 kts 20°
2026-05-07 16:34 59.07611 17.80362 14344 ft 400 kts 20°
2026-05-07 16:34 59.10147 17.82555 14118 ft 398 kts 20°
2026-05-07 16:35 59.12644 17.84718 13878 ft 397 kts 20°
2026-05-07 16:35 59.15158 17.86900 13598 ft 395 kts 20°
2026-05-07 16:35 59.17667 17.89082 13327 ft 393 kts 20°
2026-05-07 16:35 59.20160 17.91252 13055 ft 391 kts 20°
2026-05-07 16:36 59.22637 17.93413 12806 ft 389 kts 20°
2026-05-07 16:36 59.25097 17.95561 12541 ft 386 kts 20°
2026-05-07 16:36 59.27584 17.97525 12304 ft 383 kts 16°
2026-05-07 16:36 59.30115 17.99082 12067 ft 379 kts 13°
2026-05-07 16:37 59.32639 18.00512 11828 ft 374 kts 12°
2026-05-07 16:37 59.35082 18.01895 11572 ft 357 kts 12°
2026-05-07 16:37 59.37399 18.03218 11300 ft 343 kts 12°
2026-05-07 16:37 59.39632 18.04502 11040 ft 329 kts 12°
2026-05-07 16:38 59.41795 18.05756 10788 ft 317 kts 12°
2026-05-07 16:38 59.43872 18.06966 10523 ft 306 kts 12°
2026-05-07 16:38 59.45903 18.07928 10259 ft 294 kts
2026-05-07 16:38 59.47891 18.08460 9996 ft 284 kts
2026-05-07 16:39 59.49829 18.08907 9725 ft 277 kts
2026-05-07 16:39 59.51738 18.09330 9428 ft 275 kts
2026-05-07 16:39 59.53637 18.09735 9129 ft 274 kts
2026-05-07 16:39 59.55529 18.10129 8832 ft 273 kts
2026-05-07 16:40 59.57420 18.10513 8541 ft 272 kts
2026-05-07 16:40 59.59298 18.10887 8269 ft 271 kts
2026-05-07 16:40 59.61172 18.11252 7962 ft 270 kts
2026-05-07 16:40 59.63037 18.11606 7675 ft 268 kts
2026-05-07 16:41 59.64894 18.11950 7390 ft 267 kts
2026-05-07 16:41 59.66720 18.12282 7123 ft 266 kts
2026-05-07 16:41 59.68561 18.12608 6842 ft 265 kts
2026-05-07 16:41 59.70396 18.12923 6562 ft 264 kts
2026-05-07 16:42 59.72225 18.13229 6266 ft 263 kts
2026-05-07 16:42 59.74046 18.13523 5954 ft 262 kts
2026-05-07 16:42 59.75861 18.13818 5647 ft 261 kts
2026-05-07 16:42 59.77668 18.14115 5354 ft 260 kts
2026-05-07 16:43 59.79478 18.14225 5048 ft 259 kts 352°
2026-05-07 16:43 59.81141 18.12968 4764 ft 258 kts 324°
2026-05-07 16:43 59.82302 18.10290 4476 ft 259 kts 296°
2026-05-07 16:43 59.82689 18.06842 4189 ft 256 kts 266°
2026-05-07 16:44 59.82045 18.03658 3964 ft 248 kts 230°
2026-05-07 16:44 59.80725 18.01681 3779 ft 230 kts 208°
2026-05-07 16:44 59.79250 18.00834 3561 ft 215 kts 188°
2026-05-07 16:44 59.77803 18.00537 3282 ft 203 kts 188°
2026-05-07 16:45 59.76433 18.00132 2963 ft 196 kts 192°
2026-05-07 16:45 59.75109 17.99595 2591 ft 192 kts 191°
2026-05-07 16:45 59.73813 17.99120 2295 ft 183 kts 190°
2026-05-07 16:45 59.72649 17.98707 2172 ft 161 kts 189°
2026-05-07 16:46 59.71596 17.98332 1920 ft 153 kts 189°
2026-05-07 16:46 59.70523 17.97951 1420 ft 157 kts 189°
2026-05-07 16:46 59.69439 17.97561 963 ft 158 kts 190°
2026-05-07 16:46 59.68409 17.97161 796 ft 140 kts 186°
2026-05-07 16:47 59.67514 17.96842 707 ft 125 kts 186°
2026-05-07 16:47 59.66663 17.96531 556 ft 125 kts 188°
2026-05-07 16:47 59.65802 17.96216 381 ft 127 kts 186°
2026-05-07 16:47 59.64927 17.95900 164 ft 129 kts 187°
2026-05-07 16:48 59.64123 17.95618 117 ft 93 kts 191°
2026-05-07 16:48 59.63707 17.95467 119 ft 29 kts 191°
2026-05-07 16:48 59.63612 17.95431 122 ft 14 kts 191°
2026-05-07 16:48 59.63514 17.95386 123 ft 15 kts 198°
2026-05-07 16:49 59.63415 17.95304 123 ft 17 kts 206°
2026-05-07 16:49 59.63320 17.95167 125 ft 16 kts 219°
2026-05-07 16:49 59.63259 17.95052 124 ft 4 kts 235°
2026-05-07 16:49 59.63259 17.95051 125 ft 0 kts 236°
2026-05-07 16:50 59.63255 17.95036 124 ft 4 kts 242°
2026-05-07 16:51 59.63256 17.94950 127 ft 8 kts 294°
2026-05-07 16:51 59.63320 17.94916 125 ft 12 kts 10°
2026-05-07 16:51 59.63432 17.94956 122 ft 20 kts 12°
2026-05-07 16:51 59.63592 17.95015 120 ft 26 kts 10°
2026-05-07 16:52 59.63788 17.95082 113 ft 31 kts
2026-05-07 16:52 59.64013 17.95169 112 ft 34 kts 11°
2026-05-07 16:52 59.64252 17.95261 110 ft 37 kts 11°
2026-05-07 16:52 59.64489 17.95344 108 ft 30 kts
2026-05-07 16:53 59.64703 17.95421 109 ft 32 kts 10°
2026-05-07 16:53 59.64903 17.95492 112 ft 20 kts 10°
2026-05-07 16:53 59.65033 17.95514 117 ft 19 kts 353°
2026-05-07 16:53 59.65159 17.95456 124 ft 18 kts 345°
2026-05-07 16:54 59.65283 17.95392 125 ft 19 kts 345°
2026-05-07 16:54 59.65409 17.95323 135 ft 20 kts 344°
2026-05-07 16:54 59.65553 17.95247 133 ft 23 kts 345°
2026-05-07 16:54 59.65712 17.95156 133 ft 23 kts 332°
2026-05-07 16:55 59.65728 17.94858 126 ft 25 kts 257°
2026-05-07 16:55 59.65686 17.94517 124 ft 27 kts 255°
2026-05-07 16:55 59.65638 17.94146 127 ft 26 kts 256°
2026-05-07 16:55 59.65594 17.93793 119 ft 26 kts 256°
2026-05-07 16:56 59.65548 17.93421 116 ft 30 kts 256°
2026-05-07 16:56 59.65506 17.93094 116 ft 23 kts 255°
2026-05-07 16:56 59.65375 17.92699 117 ft 12 kts 164°
2026-05-07 16:57 59.65347 17.92769 114 ft 6 kts 111°
2026-05-07 16:57 59.65339 17.92831 115 ft 4 kts 101°
2026-05-07 16:57 59.65339 17.92833 115 ft 0 kts 102°
2026-05-07 16:58 59.65337 17.92858 116 ft 4 kts 101°
2026-05-07 16:58 59.65334 17.92889 115 ft 0 kts 101°
2026-05-07 16:59 59.65334 17.92888 115 ft 0 kts 101°